Location: ????????
(55.6189°N, 38.3031°E)
Time: 17:07:20
(UTC+00:00)

COSMOS 2428 - Pass Details

Date: 15 November 2019
Orbit: 844 x 858 km, 70.9° (Epoch: 05 December)

Event Time Altitude Azimuth Distance (km) Brightness Sun altitude
Exits shadow 03:21:38 - 328° (NNW) 2,662 4.9 -13.7°
Reaches altitude 10° 03:22:06 10° 329° (NNW) 2,488 4.7 -13.6°
Maximum altitude 03:27:43 55° 48° (NE) 1,020 3.3 -12.8°
Drops below altitude 10° 03:33:20 10° 126° (SE) 2,485 6.4 -12.1°
Sets 03:35:50 0° 131° (SE) 3,420 7.2 -11.7°
